Weather History for San Angelo, TX

Change the Weather History Date:

Tuesday, August 6, 2013

  Actual Average Record
Temperature  
Mean Temperature 91 °F 84 °F  
Max Temperature 106 °F 96 °F 107 °F (1962)
Min Temperature 76 °F 72 °F 61 °F (1930)
Degree Days  
Heating Degree Days 0 0  
Month to date heating degree days 0 0  
Since 1 June heating degree days 0 0  
Since 1 July heating degree days 0 0  
Cooling Degree Days 26 19  
Month to date cooling degree days 145 114  
Year to date cooling degree days 1856 1601  
Since 1 June cooling degree days 1260 1141  
Growing Degree Days 40 (Base 50)    
Moisture  
Dew Point 63 °F    
Average Humidity 45    
Maximum Humidity 67    
Minimum Humidity 22    
Precipitation  
Precipitation 0.01 in 0.06 in 1.19 in (1989)
Month to date precipitation 0.01 0.33  
Year to date precipitation 10.96 12.14  
Sea Level Pressure  
Sea Level Pressure 29.82 in    
Wind  
Wind Speed 8 mph (South)    
Max Wind Speed 28 mph    
Max Gust Speed 33 mph    
Visibility 10 miles    
Events Rain , Thunderstorm    
T = Trace of Precipitation, MM = Missing Value Source: NWS Daily Summary

Daily Weather History Graph

Daily Weather History Graph

Search for Another Location

Airport:

Trip Planner

Search our weather history database for the weather conditions in past years. The results will help you decide how hot, cold, wet, or windy it might be!

Date:

Astronomy

Aug. 06, 2013 Rise Set
Actual Time 7:01 AM CDT 8:33 PM CDT
Civil Twilight 6:35 AM CDT 8:59 PM CDT
Nautical Twilight 6:04 AM CDT 9:30 PM CDT
Astronomical Twilight 5:31 AM CDT 10:03 PM CDT
Moon 6:51 AM CDT (8/6) 8:14 PM CDT (8/6)
Length of Visible Light 14h 23m
Length of Day
13h 31m
Waning Crescent, 0% of the Moon is Illuminated
Aug 6
Waning Crescent
Aug 6
New
Aug 14
First Quarter
Aug 20
Full
Aug 28
Last Quarter

Hourly Weather History & Observations

Time (CDT) Temp. Heat Index Dew Point Humidity Pressure Visibility Wind Dir Wind Speed Gust Speed Precip Events Conditions
12:51 AM 82.0 °F 81.6 °F 55.9 °F 41% 29.85 in 10.0 mi South 5.8 mph - N/A   Clear
1:51 AM 78.1 °F - 55.9 °F 46% 29.86 in 10.0 mi Calm Calm - N/A   Clear
2:51 AM 81.0 °F 81.1 °F 57.9 °F 45% 29.84 in 10.0 mi South 6.9 mph - N/A   Clear
3:51 AM 79.0 °F - 59.0 °F 50% 29.84 in 10.0 mi South 8.1 mph - N/A   Clear
4:51 AM 78.1 °F - 64.0 °F 62% 29.84 in 10.0 mi South 6.9 mph - N/A   Clear
5:51 AM 79.0 °F - 66.0 °F 64% 29.84 in 10.0 mi South 8.1 mph - N/A   Clear
6:51 AM 78.1 °F - 66.0 °F 66% 29.85 in 10.0 mi South 8.1 mph - N/A   Clear
7:51 AM 78.1 °F - 66.9 °F 68% 29.86 in 10.0 mi SSE 4.6 mph - N/A   Clear
8:51 AM 81.0 °F 83.3 °F 66.9 °F 62% 29.87 in 10.0 mi South 10.4 mph 21.9 mph N/A   Clear
9:51 AM 86.0 °F 88.8 °F 66.9 °F 53% 29.87 in 10.0 mi SSW 11.5 mph - N/A   Clear
10:51 AM 90.0 °F 92.4 °F 66.0 °F 45% 29.86 in 10.0 mi South 12.7 mph 21.9 mph N/A   Clear
11:51 AM 93.9 °F 95.6 °F 64.0 °F 37% 29.86 in 10.0 mi South 15.0 mph 23.0 mph N/A   Clear
12:51 PM 98.1 °F 100.7 °F 64.0 °F 33% 29.84 in 10.0 mi South 10.4 mph 21.9 mph N/A   Clear
1:51 PM 100.0 °F 101.8 °F 62.1 °F 29% 29.83 in 10.0 mi SSE 10.4 mph 20.7 mph N/A   Clear
2:51 PM 102.0 °F 102.7 °F 60.1 °F 25% 29.79 in 10.0 mi Variable 5.8 mph - N/A   Clear
3:51 PM 102.9 °F 103.0 °F 59.0 °F 23% 29.77 in 10.0 mi Calm Calm - N/A   Clear
4:51 PM 104.0 °F 104.0 °F 57.9 °F 22% 29.74 in 10.0 mi SE 8.1 mph - N/A   Clear
5:51 PM 104.0 °F 104.0 °F 57.9 °F 22% 29.73 in 10.0 mi SE 8.1 mph 18.4 mph N/A   Clear
6:51 PM 102.9 °F 102.4 °F 57.0 °F 22% 29.73 in 10.0 mi SSE 5.8 mph - N/A   Partly Cloudy
7:51 PM 100.0 °F 99.2 °F 57.0 °F 24% 29.73 in 10.0 mi South 6.9 mph - N/A   Clear
8:25 PM 91.4 °F 92.1 °F 62.6 °F 38% 29.86 in 10.0 mi WNW 24.2 mph 28.8 mph N/A   Mostly Cloudy
8:34 PM 87.8 °F 89.4 °F 64.4 °F 46% 29.86 in 10.0 mi WNW 20.7 mph 33.4 mph N/A Thunderstorm Thunderstorm
8:51 PM 82.9 °F 86.5 °F 69.1 °F 63% 29.80 in 10.0 mi WSW 11.5 mph - 0.00 in Rain , Thunderstorm Light Rain
9:12 PM 82.4 °F 86.3 °F 69.8 °F 66% 29.88 in 10.0 mi West 9.2 mph - 0.01 in   Mostly Cloudy
9:51 PM 82.9 °F 86.5 °F 69.1 °F 63% 29.81 in 10.0 mi West 5.8 mph - 0.01 in   Clear
10:51 PM 81.0 °F 83.0 °F 66.0 °F 60% 29.81 in 10.0 mi South 8.1 mph - N/A   Partly Cloudy
11:51 PM 81.0 °F 82.5 °F 64.0 °F 56% 29.82 in 10.0 mi SSE 4.6 mph - N/A   Clear